Search your local weather  

 

Hazardous Weather Conditions

No active alerts for PHOENIX, ARIZONA

Current Conditions: PHOENIX, ARIZONA

Fair


56.0 F

Last Updated on Dec 11 2019, 7:53 pm MST
Humidity: 65%
Wind Speed: N 0.0 mph
Barometer 30.13 in
Dewpoint: 44.1 F
Visibility: 10.00 mi
Precip: --
Heat Index: NA
Wind Chill: NA
Current conditions at:

Phoenix, Phoenix-Deer Valley Municipal Airport, AZ (KDVT)

Lat: 33.69026 Lon: -112.06618

Local Radar Image active severe weather and emergency alerts image image weather storm and storm spotter reports image weather observation monitoring service image
Local
Radar
Active
Alerts
Storm Reports Weather
Monitoring

5 Day Forecast for PHOENIX, ARIZONA (85003)

Wednesday

Partly Sunny

High 68 °F
Wednesday
Night
Mostly Clear

Low 46 °F
Thursday

Partly Sunny

High 69 °F
Thursday
Night
Mostly Clear

Low 48 °F
Friday

Mostly Sunny

High 71 °F
Friday
Night
Mostly Clear

Low 49 °F
Saturday

Mostly Sunny

High 71 °F
Saturday
Night
Partly Cloudy

Low 50 °F
Sunday

Mostly Sunny

High 67 °F

Sign-up For Email & Text Message Weather Alert Notification Services



Advertise Here

Observation History for PHOENIX, ARIZONA


Time Wind
(mph)
Vis
(mi)
Weather Precip (in) Temperature (F) Relative
Humidity
Wind
Chill
(°F)
Heat
Index
(°F)
Pressure
Air Dwpt altimeter
(in)
sea level
(mb)
7:53 pm MST N 0.0 10.00 Fair -- 56.0 44.1 65% NA NA 30.13 1019.6
6:53 pm MST N 0.0 10.00 Fair -- 59.0 42.1 54% NA NA 30.12 1019.2
5:53 pm MST W 3.5 10.00 Fair -- 61.0 39.9 46% NA NA 30.10 1018.4
4:53 pm MST 3.5 10.00 Fair -- 65.0 39.0 39% NA NA 30.10 1018.2
3:53 pm MST N 0.0 10.00 Fair -- 66.0 37.9 36% NA NA 30.10 1018.3
2:53 pm MST SW 4.6 10.00 Fair -- 65.0 37.9 37% NA NA 30.11 1018.7
1:53 pm MST 3.5 10.00 Fair -- 65.0 39.0 39% NA NA 30.12 1019.0
12:53 pm MST 5.8 10.00 Fair -- 64.0 39.9 41% NA NA 30.14 1019.6
11:53 am MST N 0.0 10.00 Fair -- 62.0 39.9 44% NA NA 30.16 1020.4
10:53 am MST SE 3.5 8.00 Fair -- 59.0 41.0 51% NA NA 30.19 1021.3
9:53 am MST W 4.6 10.00 Fair -- 55.0 41.0 59% 54 NA 30.21 1022.1
8:53 am MST N 3.5 10.00 Fair -- 52.0 41.0 66% NA NA 30.20 1021.8
7:53 am MST N 3.5 8.00 Fair -- 49.0 39.9 71% NA NA 30.19 1021.6
6:53 am MST N 0.0 10.00 Fair -- 50.0 37.9 63% NA NA 30.17 1020.8
5:53 am MST E 8.1 10.00 Fair -- 51.0 37.0 59% 48 NA 30.15 1020.1
4:53 am MST E 9.2 10.00 Fair -- 51.0 37.0 59% 48 NA 30.16 1020.4
3:53 am MST N 0.0 10.00 Fair -- 49.0 37.9 66% NA NA 30.18 1021.0
2:53 am MST N 3.5 10.00 Fair -- 47.0 39.9 77% NA NA 30.19 1021.6
1:53 am MST N 0.0 10.00 Fair -- 50.0 39.0 66% NA NA 30.19 1021.2
12:53 am MST NE 8.1 10.00 Fair -- 52.0 39.0 61% 49 NA 30.19 1021.2
11:53 pm MST N 0.0 10.00 Fair -- 51.0 41.0 69% NA NA 30.20 1021.7
10:53 pm MST NE 5.8 10.00 Fair -- 53.0 41.0 64% 51 NA 30.21 1022.1
9:53 pm MST 5.8 10.00 Fair -- 53.0 41.0 64% 51 NA 30.21 1022.3
8:53 pm MST NE 4.6 10.00 Fair -- 53.0 42.1 66% 52 NA 30.21 1022.4

Regional Weather Observation

Glendale, Glendale Municipal Airport, AZ (KGEU)

A Few Clouds
63.0 F

Luke Air Force Base / Phoenix, AZ (KLUF)

Fair
54.0 F

Phoenix, Phoenix Sky Harbor International Airport, AZ (KPHX)

Mostly Cloudy
59.0 F

Goodyear Municipal, AZ (KGYR)

Partly Cloudy
57.0 F

Buckeye Municipal Airport, AZ (KBXK)

Fair
54.0 F

Scottsdale Airport, AZ (KSDL)

Fair
57.0 F

Advertise Here


Advertise Here